Location: Newark
(37.8444°N, 127.0614°E)
Time: 18:45:42
(UTC+00:00)

XW-2F - Pass Details

Date: 27 January 2020
Orbit: 501 x 524 km, 97.5° (Epoch: 19 February)

Event Time Altitude Azimuth Distance (km) Brightness Sun altitude
Rises 21:22:38 0° 16° (NNE) 2,605 ? -15.4°
Reaches altitude 10° 21:24:45 10° 20° (NNE) 1,715 ? -15.0°
Maximum altitude 21:28:23 57° 100° (E) 595 ? -14.3°
Drops below altitude 10° 21:32:00 10° 180° (S) 1,703 ? -13.6°
Sets 21:34:06 0° 184° (S) 2,584 ? -13.2°
